User: anonymous   Login
Location: Chandrammap?lem
(16.9200°N, 81.0051°E)
Time: 02:59:27
(UTC+00:00)
Language:

USA 186 - Orbit

View from above orbital plane
View from above orbital plane
View from above satellite
View from above satellite

Ground track
Ground track

The orbit data is extracted from the following two-line orbital elements,

1 28888U 05042A   24188.11715619 0.00019400  00000-0  29226-3 0    00
2 28888  97.0643 227.0256 0041345 142.5356 217.4642 15.53766880    07
Epoch (UTC): 06 July 2024 02:48:42
Eccentricity: 0.0041345
inclination: 97.0643°
perigee height: 377 km
apogee height: 434 km
right ascension of ascending node: 227.0256°
argument of perigee: 142.5356°
revolutions per day: 15.53766880
mean anomaly at epoch: 217.4642°
orbit number at epoch: 0

The dashed part of the orbit path shows where the satellite is in the earth's shadow,  

DLR